Date,TemperatureHighF,TemperatureAvgF,TemperatureLowF,DewpointHighF,DewpointAvgF,DewpointLowF,HumidityHigh,HumidityAvg,HumidityLow,PressureMaxIn,PressureMinIn,WindSpeedMaxMPH,WindSpeedAvgMPH,GustSpeedMaxMPH,PrecipitationSumIn
2013-2-1,16.7,12.9,7.9,12.7,8.1,2.0,90,81,69,30.27,29.88,23,6,23,0.00
2013-2-2,23.4,16.0,5.6,19.6,12.2,2.3,89,85,79,30.22,29.93,14,3,14,0.02
2013-2-3,21.6,13.6,2.1,17.3,9.2,-1.5,88,83,73,30.02,29.85,20,3,21,0.00
2013-2-4,22.8,19.2,15.3,19.1,16.3,12.8,91,88,84,30.02,29.85,8,1,8,0.03
2013-2-5,28.0,19.7,3.6,26.0,16.5,0.1,93,87,75,29.95,29.80,16,3,16,0.02
2013-2-6,34.1,23.0,8.2,23.5,15.5,4.8,89,73,53,30.27,29.95,16,2,16,0.00
2013-2-7,38.0,29.7,23.6,30.3,24.2,16.2,90,80,71,30.25,29.80,18,5,18,0.04
2013-2-8,30.4,26.2,15.8,28.6,22.4,12.7,94,85,69,30.33,29.75,21,5,22,0.14
2013-2-9,30.1,20.1,5.9,20.8,15.1,2.4,90,81,62,30.43,30.26,11,2,11,0.00
2013-2-10,40.4,30.7,20.2,38.3,26.4,18.3,92,84,69,30.25,29.66,17,5,18,0.15
2013-2-11,44.5,37.0,30.7,43.1,31.4,25.1,95,80,70,29.85,29.52,34,11,36,0.05
2013-2-12,31.9,29.9,26.9,25.3,24.0,21.6,81,78,73,30.02,29.85,24,7,24,0.00
2013-2-13,40.3,30.8,25.7,28.0,24.6,21.5,88,78,59,29.90,29.70,11,2,11,0.00
2013-2-14,39.8,34.6,29.9,35.0,30.6,27.3,92,85,73,29.83,29.64,26,6,26,0.00
2013-2-15,33.2,27.1,20.0,29.4,19.4,13.7,91,73,57,30.10,29.83,18,5,18,0.00
2013-2-16,25.0,19.7,13.7,18.9,14.6,10.4,92,81,61,30.08,29.97,18,4,18,0.02
2013-2-17,25.0,16.5,9.7,11.6,9.1,6.5,90,74,50,30.19,30.05,16,3,17,0.00
2013-2-18,47.4,32.8,15.3,39.7,24.0,9.0,85,70,58,30.19,29.56,22,6,22,0.05
2013-2-19,44.1,26.7,16.7,40.5,22.7,12.2,93,84,72,29.92,29.38,29,11,30,0.25
2013-2-20,21.5,18.8,15.2,16.0,12.5,8.5,89,76,66,30.24,29.92,25,8,25,0.00
2013-2-21,25.3,22.1,20.3,18.5,16.6,14.7,85,79,73,30.35,30.21,17,5,17,0.00
2013-2-22,33.2,26.7,20.9,32.1,24.6,17.1,96,92,85,30.22,29.86,22,6,23,0.09
2013-2-23,32.7,29.0,23.9,30.1,22.1,18.6,90,76,64,29.90,29.84,16,5,16,0.00
2013-2-24,34.2,27.9,21.8,27.8,23.1,18.0,92,82,70,30.13,29.88,18,4,19,0.00
2013-2-25,40.1,29.2,15.3,28.7,22.6,12.4,93,77,60,30.21,30.05,10,2,10,0.00
2013-2-26,33.5,31.1,26.9,32.0,27.2,21.3,96,85,74,30.08,29.44,24,7,24,0.83
2013-2-27,35.2,33.7,32.8,33.3,32.3,31.5,96,94,91,29.54,29.40,10,2,10,0.24
2013-2-28,36.9,33.2,29.8,33.2,30.7,26.0,96,90,80,29.92,29.51,19,4,19,0.02